Home > Weather > Kufstein > Past weeks

Flag for Austria Weather for the Past 2 Weeks in Kufstein, Tyrol, Austria

Now
53 °F

Cool.


Feels Like: 53 °F
Forecast: 39 / 74 °F
Wind: 2 mph from North

Location: Kufstein

Current Time: May 5, 2016 at 10:51:05 PM

Latest Report: May 5, 2016 at 10:00 PM


Visibility: N/A

Pressure: 30.14 "Hg

Humidity: 79%

Dew Point: 46 °F

Location of KufsteinLocation

Historic Weather in Kufstein — Graph

°F

Kufstein Temperature Yesterday

Maximum temperature yesterday: 51 °F (at 6:00 PM)
Minimum temperature yesterday: 44 °F (at 6:00 AM)
Average temperature yesterday: 46 °F

High & Low Weather Summary for the Past Weeks

 TemperatureHumidityPressure
High68 °F (Apr 22, 4:00 PM)96% (May 1, 11:00 PM)30.38 "Hg (May 1, 11:00 PM)
Low33 °F (Apr 26, 4:00 AM)28% (Apr 29, 4:00 PM)29.61 "Hg (Apr 26, 3:00 PM)
Average48 °F72%30.03 "Hg
* Reported Apr 20 9:00 PM — May 5 9:00 PM, Kufstein, Weather by CustomWeather, © 2016

Note: Actual official high and low records may vary slightly from our data, if they occured in-between our weather recording intervals... More about our weather records

Advertising

Kufstein Weather History for the Previous 24 Hours

Scroll right to see more
 ConditionsComfort  
Time TempWeatherWind HumidityBarometerVisibility
9:00 PM
Thu, May 5
56 °FCool.2 mph71%30.12 "HgN/A
8:00 PM59 °FCool.2 mph61%30.10 "HgN/A
7:00 PM62 °FRefreshingly cool.3 mph56%30.09 "HgN/A
6:00 PM63 °FMild.3 mph52%30.10 "HgN/A
5:00 PM62 °FMild.3 mph50%30.10 "HgN/A
4:00 PM62 °FRefreshingly cool.3 mph52%30.13 "HgN/A
3:00 PM62 °FRefreshingly cool.2 mph52%30.14 "HgN/A
2:00 PM59 °FRefreshingly cool.2 mph50%30.17 "HgN/A
1:00 PM57 °FRefreshingly cool.2 mph50%30.20 "HgN/A
12:00 PM54 °FCool.1 mph51%30.24 "HgN/A
11:00 AM52 °FCool.1 mph57%30.27 "HgN/A
10:00 AM48 °FCool.1 mph69%30.29 "HgN/A
9:00 AM42 °FQuite cool.1 mph80%30.33 "HgN/A
8:00 AM37 °FChilly.1 mph92%30.36 "HgN/A
7:00 AM35 °FChilly.No wind95%30.37 "HgN/A
6:00 AM34 °FChilly.No wind95%30.38 "HgN/A
5:00 AM36 °FChilly.No wind94%30.37 "HgN/A
4:00 AM37 °FChilly.No wind94%30.36 "HgN/A
3:00 AM38 °FChilly.1 mph93%30.37 "HgN/A
2:00 AM39 °FChilly.No wind89%30.37 "HgN/A
1:00 AM41 °FQuite cool.No wind89%30.38 "HgN/A
12:00 AM43 °FQuite cool.No wind86%30.37 "HgN/A
11:00 PM
Wed, May 4
44 °FQuite cool.1 mph83%30.37 "HgN/A
10:00 PM45 °FCool.No wind82%30.36 "HgN/A
Weather by CustomWeather, © 2016

See weather overviewHow to use our weather pages